TimeCDT,TemperatureF,Dew PointF,Humidity,Sea Level PressureIn,VisibilityMPH,Wind Direction,Wind SpeedMPH,Gust SpeedMPH,PrecipitationIn,Events,Conditions,WindDirDegrees,DateUTC
12:13 AM,53.6,46.4,77,30.03,10.0,NNW,6.9,-,N/A,,Mostly Cloudy,330,2013-07-28 05:13:00
12:33 AM,53.6,46.4,77,30.03,10.0,NNW,8.1,-,N/A,,Scattered Clouds,330,2013-07-28 05:33:00
12:52 AM,51.8,46.4,82,30.03,10.0,NW,6.9,-,N/A,,Clear,320,2013-07-28 05:52:00
1:13 AM,51.8,46.4,82,30.03,10.0,NW,6.9,-,N/A,,Clear,310,2013-07-28 06:13:00
1:33 AM,50.0,44.6,82,30.03,10.0,NW,5.8,-,N/A,,Clear,320,2013-07-28 06:33:00
1:52 AM,50.0,44.6,82,30.03,10.0,NW,5.8,-,N/A,,Clear,310,2013-07-28 06:52:00
2:13 AM,50.0,44.6,82,30.03,10.0,NW,5.8,-,N/A,,Clear,310,2013-07-28 07:13:00
2:32 AM,48.2,44.6,87,30.03,10.0,NW,3.5,-,N/A,,Clear,310,2013-07-28 07:32:00
2:52 AM,46.4,44.6,93,30.03,10.0,Calm,Calm,-,N/A,,Clear,0,2013-07-28 07:52:00
3:13 AM,46.4,44.6,93,30.03,10.0,West,4.6,-,N/A,,Clear,270,2013-07-28 08:13:00
3:32 AM,48.2,44.6,87,30.03,10.0,West,5.8,-,N/A,,Clear,270,2013-07-28 08:32:00
3:52 AM,46.4,44.6,93,30.02,10.0,NW,5.8,-,N/A,,Clear,310,2013-07-28 08:52:00
4:13 AM,48.2,44.6,87,30.02,10.0,NW,6.9,-,N/A,,Clear,320,2013-07-28 09:13:00
4:32 AM,46.4,44.6,93,30.02,10.0,WNW,4.6,-,N/A,,Clear,300,2013-07-28 09:32:00
4:52 AM,44.6,42.8,93,30.02,10.0,NW,3.5,-,N/A,,Clear,310,2013-07-28 09:52:00
5:13 AM,44.6,42.8,93,30.03,10.0,Calm,Calm,-,N/A,,Clear,0,2013-07-28 10:13:00
5:32 AM,44.6,42.8,93,30.03,10.0,Calm,Calm,-,N/A,,Clear,0,2013-07-28 10:32:00
5:52 AM,44.6,42.8,93,30.03,10.0,Calm,Calm,-,N/A,,Clear,0,2013-07-28 10:52:00
6:13 AM,44.6,41.0,87,30.03,10.0,Calm,Calm,-,N/A,,Clear,0,2013-07-28 11:13:00
6:32 AM,44.6,42.8,93,30.03,10.0,Calm,Calm,-,N/A,,Clear,0,2013-07-28 11:32:00
6:52 AM,46.4,42.8,87,30.04,10.0,WNW,3.5,-,N/A,,Clear,290,2013-07-28 11:52:00
7:13 AM,48.2,44.6,87,30.04,10.0,Calm,Calm,-,N/A,,Clear,0,2013-07-28 12:13:00
7:32 AM,50.0,44.6,82,30.04,10.0,West,4.6,-,N/A,,Clear,260,2013-07-28 12:32:00
7:52 AM,53.6,46.4,77,30.04,10.0,WNW,6.9,-,N/A,,Clear,300,2013-07-28 12:52:00
8:13 AM,55.4,46.4,72,30.05,10.0,NW,9.2,-,N/A,,Clear,310,2013-07-28 13:13:00
8:32 AM,55.4,46.4,72,30.05,10.0,NW,8.1,-,N/A,,Clear,320,2013-07-28 13:32:00
8:52 AM,57.2,46.4,67,30.05,10.0,NW,8.1,-,N/A,,Clear,320,2013-07-28 13:52:00
9:13 AM,57.2,44.6,63,30.05,10.0,NNW,11.5,-,N/A,,Clear,330,2013-07-28 14:13:00
9:32 AM,59.0,44.6,59,30.06,10.0,NW,11.5,-,N/A,,Clear,310,2013-07-28 14:32:00
9:52 AM,60.8,44.6,55,30.06,10.0,NNW,11.5,16.1,N/A,,Clear,330,2013-07-28 14:52:00
10:13 AM,60.8,46.4,59,30.05,10.0,NW,8.1,-,N/A,,Clear,320,2013-07-28 15:13:00
10:32 AM,60.8,44.6,55,30.05,10.0,NW,9.2,16.1,N/A,,Clear,310,2013-07-28 15:32:00
10:52 AM,62.6,44.6,52,30.05,10.0,WNW,12.7,-,N/A,,Clear,300,2013-07-28 15:52:00
11:13 AM,62.6,46.4,55,30.05,10.0,NNW,10.4,16.1,N/A,,Clear,330,2013-07-28 16:13:00
11:33 AM,64.4,46.4,52,30.06,10.0,NNW,11.5,19.6,N/A,,Clear,330,2013-07-28 16:33:00
11:52 AM,64.4,46.4,52,30.05,10.0,NNW,9.2,-,N/A,,Clear,340,2013-07-28 16:52:00
12:13 PM,66.2,46.4,49,30.05,10.0,NNW,12.7,16.1,N/A,,Clear,330,2013-07-28 17:13:00
12:33 PM,66.2,46.4,49,30.05,10.0,NW,13.8,-,N/A,,Clear,310,2013-07-28 17:33:00
12:52 PM,66.2,46.4,49,30.05,10.0,NNW,12.7,-,N/A,,Clear,330,2013-07-28 17:52:00
1:13 PM,68.0,46.4,46,30.05,10.0,NNW,11.5,18.4,N/A,,Clear,330,2013-07-28 18:13:00
1:33 PM,69.8,46.4,43,30.05,10.0,NW,11.5,18.4,N/A,,Clear,320,2013-07-28 18:33:00
1:52 PM,69.8,48.2,46,30.05,10.0,NW,8.1,19.6,N/A,,Clear,310,2013-07-28 18:52:00
2:13 PM,69.8,46.4,43,30.05,10.0,NNW,5.8,17.3,N/A,,Clear,330,2013-07-28 19:13:00
2:32 PM,69.8,46.4,43,30.04,10.0,WNW,8.1,-,N/A,,Clear,300,2013-07-28 19:32:00
2:52 PM,69.8,46.4,43,30.04,10.0,NW,11.5,-,N/A,,Clear,310,2013-07-28 19:52:00
3:13 PM,69.8,48.2,46,30.04,10.0,NNW,5.8,-,N/A,,Clear,330,2013-07-28 20:13:00
3:32 PM,71.6,46.4,41,30.04,10.0,WNW,4.6,16.1,N/A,,Scattered Clouds,300,2013-07-28 20:32:00
3:52 PM,71.6,46.4,41,30.04,10.0,NW,5.8,-,N/A,,Clear,310,2013-07-28 20:52:00
4:12 PM,71.6,48.2,43,30.03,10.0,Calm,Calm,-,N/A,,Clear,0,2013-07-28 21:12:00
4:32 PM,71.6,46.4,41,30.03,10.0,Calm,Calm,-,N/A,,Clear,0,2013-07-28 21:32:00
4:53 PM,71.6,46.4,41,30.03,10.0,NW,8.1,-,N/A,,Scattered Clouds,310,2013-07-28 21:53:00
5:12 PM,71.6,46.4,41,30.03,10.0,NW,4.6,-,N/A,,Scattered Clouds,310,2013-07-28 22:12:00
5:32 PM,71.6,46.4,41,30.04,10.0,NW,5.8,-,N/A,,Scattered Clouds,310,2013-07-28 22:32:00
5:53 PM,71.6,48.2,43,30.04,10.0,North,8.1,-,N/A,,Scattered Clouds,350,2013-07-28 22:53:00
6:12 PM,71.6,48.2,43,30.04,10.0,Calm,Calm,-,N/A,,Clear,0,2013-07-28 23:12:00
6:32 PM,71.6,46.4,41,30.03,10.0,Calm,Calm,-,N/A,,Clear,0,2013-07-28 23:32:00
6:53 PM,71.6,48.2,43,30.04,10.0,Calm,Calm,-,N/A,,Scattered Clouds,0,2013-07-28 23:53:00
7:12 PM,69.8,48.2,46,30.04,10.0,Calm,Calm,-,N/A,,Scattered Clouds,0,2013-07-29 00:12:00
7:32 PM,69.8,48.2,46,30.05,10.0,Calm,Calm,-,N/A,,Clear,0,2013-07-29 00:32:00
7:53 PM,68.0,51.8,56,30.05,10.0,Calm,Calm,-,N/A,,Scattered Clouds,0,2013-07-29 00:53:00
8:12 PM,66.2,51.8,60,30.05,10.0,Calm,Calm,-,N/A,,Scattered Clouds,0,2013-07-29 01:12:00
8:32 PM,64.4,51.8,64,30.05,10.0,Calm,Calm,-,N/A,,Scattered Clouds,0,2013-07-29 01:32:00
8:53 PM,62.6,53.6,72,30.05,10.0,Calm,Calm,-,N/A,,Clear,0,2013-07-29 01:53:00
9:12 PM,60.8,51.8,72,30.05,10.0,Calm,Calm,-,N/A,,Clear,0,2013-07-29 02:12:00
9:32 PM,60.8,53.6,77,30.06,10.0,Calm,Calm,-,N/A,,Clear,0,2013-07-29 02:32:00
9:53 PM,60.8,51.8,72,30.07,10.0,Calm,Calm,-,N/A,,Clear,0,2013-07-29 02:53:00
10:12 PM,57.2,51.8,82,30.08,10.0,Calm,Calm,-,N/A,,Clear,0,2013-07-29 03:12:00
10:32 PM,57.2,51.8,82,30.08,10.0,Calm,Calm,-,N/A,,Clear,0,2013-07-29 03:32:00
10:53 PM,55.4,51.8,88,30.08,10.0,Calm,Calm,-,N/A,,Clear,0,2013-07-29 03:53:00
11:12 PM,55.4,50.0,82,30.09,10.0,Calm,Calm,-,N/A,,Clear,0,2013-07-29 04:12:00
11:32 PM,55.4,50.0,82,30.08,10.0,Calm,Calm,-,N/A,,Clear,0,2013-07-29 04:32:00
11:53 PM,51.8,48.2,88,30.09,10.0,Calm,Calm,-,N/A,,Clear,0,2013-07-29 04:53:00